Weather History for Belleville, IL

Change the Weather History Date:

Wednesday, December 5, 2012

  Actual Average Record
Temperature  
Mean Temperature 44 °F -  
Max Temperature 54 °F 49 °F 71 °F (1956)
Min Temperature 33 °F 30 °F 10 °F (2002)
Degree Days  
Heating Degree Days 22    
Moisture  
Dew Point 36 °F    
Average Humidity 79    
Maximum Humidity 100    
Minimum Humidity 52    
Precipitation  
Precipitation 0.00 in - - ()
Sea Level Pressure  
Sea Level Pressure 30.29 in    
Wind  
Wind Speed 2 mph (NE)    
Max Wind Speed 10 mph    
Max Gust Speed -    
Visibility 9 miles    
Events      
Averages and records for this station are not official NWS values.
T = Trace of Precipitation, MM = Missing Value Source: NWS Daily Summary

Daily Weather History Graph

Daily Weather History Graph

Search for Another Location

Airport:

Trip Planner

Search our weather history database for the weather conditions in past years. The results will help you decide how hot, cold, wet, or windy it might be!

Date:

Astronomy

Dec. 05, 2012 Rise Set
Actual Time 7:02 AM CST 4:38 PM CST
Civil Twilight 6:32 AM CST 5:07 PM CST
Nautical Twilight 5:59 AM CST 5:40 PM CST
Astronomical Twilight 5:27 AM CST 6:12 PM CST
Moon 11:24 PM CST (12/5) 11:29 AM CST (12/5)
Length of Visible Light 10h 34m
Length of Day
9h 35m
Waning Gibbous, 59% of the Moon is Illuminated
Dec 5
Waning Gibbous
Dec 6
Last Quarter
Dec 13
New
Dec 19
First Quarter
Dec 28
Full

Hourly Weather History & Observations

Time (CST) Temp. Windchill Dew Point Humidity Pressure Visibility Wind Dir Wind Speed Gust Speed Precip Events Conditions
12:44 AM 35.6 °F - 35.6 °F 100% 30.30 in 4.0 mi Calm Calm - N/A   Clear
12:51 AM 37.4 °F - 37.4 °F 100% 30.30 in 6.0 mi Calm Calm - N/A   Clear
12:55 AM 36.9 °F - 36.5 °F 99% 30.30 in 5.0 mi Calm Calm - N/A   Clear
1:55 AM 35.1 °F - 34.9 °F 99% 30.31 in 10.0 mi Calm Calm - N/A   Clear
2:55 AM 35.1 °F - 34.7 °F 99% 30.32 in 7.0 mi Calm Calm - N/A   Clear
2:57 AM 33.8 °F - 33.8 °F 100% 30.32 in 8.0 mi Calm Calm - N/A   Clear
3:55 AM 40.5 °F 34.1 °F 34.5 °F 79% 30.32 in 10.0 mi NW 10.4 mph - N/A   Clear
4:55 AM 40.6 °F 36.7 °F 34.9 °F 80% 30.34 in 10.0 mi NNW 5.8 mph - N/A   Clear
5:55 AM 39.9 °F 36.7 °F 34.0 °F 79% 30.35 in 10.0 mi North 4.6 mph - N/A   Clear
6:55 AM 33.3 °F - 31.1 °F 92% 30.37 in 10.0 mi Calm Calm - N/A   Clear
8:55 AM 43.0 °F 41.3 °F 35.4 °F 75% 30.39 in 10.0 mi North 3.5 mph - N/A   Clear
9:55 AM 46.9 °F - 37.9 °F 71% 30.39 in 10.0 mi ENE 5.8 mph - N/A   Clear
10:55 AM 50.2 °F - 37.0 °F 61% 30.38 in 10.0 mi NE 5.8 mph - N/A   Clear
11:55 AM 52.2 °F - 37.8 °F 58% 30.36 in 10.0 mi NE 3.5 mph - N/A   Clear
12:55 PM 53.6 °F - 37.9 °F 55% 30.33 in 10.0 mi ENE 5.8 mph - N/A   Clear
1:55 PM 54.7 °F - 37.8 °F 53% 30.30 in 10.0 mi Variable 3.5 mph - N/A   Clear
2:55 PM 53.8 °F - 36.5 °F 52% 30.28 in 10.0 mi East 4.6 mph - N/A   Clear
3:55 PM 52.3 °F - 39.4 °F 61% 30.27 in 10.0 mi NE 4.6 mph - N/A   Clear
4:55 PM 48.9 °F - 39.2 °F 69% 30.26 in 10.0 mi NNE 4.6 mph - N/A   Clear
5:55 PM 46.0 °F 44.8 °F 37.8 °F 73% 30.25 in 10.0 mi NE 3.5 mph - N/A   Clear
6:55 PM 42.4 °F 40.7 °F 37.0 °F 81% 30.25 in 10.0 mi ENE 3.5 mph - N/A   Clear
7:55 PM 42.8 °F 41.1 °F 36.1 °F 77% 30.25 in 10.0 mi ENE 3.5 mph - N/A   Clear
8:55 PM 41.2 °F 39.2 °F 35.6 °F 81% 30.23 in 8.0 mi East 3.5 mph - N/A   Clear
9:55 PM 40.5 °F 38.4 °F 34.7 °F 80% 30.20 in 8.0 mi East 3.5 mph - N/A   Clear
10:55 PM 37.2 °F - 33.8 °F 87% 30.19 in 7.0 mi Calm Calm - N/A   Clear
11:02 PM 35.6 °F - 33.8 °F 93% 30.18 in 6.0 mi Calm Calm - N/A   Clear
11:55 PM 36.1 °F - 33.3 °F 89% 30.18 in 6.0 mi Calm Calm - N/A   Clear